Year,Month,Day,Hour,Minute,Value (Times are PST for temperature in C)
2009,07,29,00,00,22.90
2009,07,29,00,01,22.90
2009,07,29,00,02,22.90
2009,07,29,00,03,22.90
2009,07,29,00,04,22.90
2009,07,29,00,05,22.90
2009,07,29,00,06,22.90
2009,07,29,00,07,22.90
2009,07,29,00,08,22.90
2009,07,29,00,09,22.90
2009,07,29,00,10,22.80
2009,07,29,00,11,22.80
2009,07,29,00,12,22.80
2009,07,29,00,13,22.70
2009,07,29,00,14,22.60
2009,07,29,00,15,22.60
2009,07,29,00,16,22.60
2009,07,29,00,17,22.50
2009,07,29,00,18,22.50
2009,07,29,00,19,22.50
2009,07,29,00,20,22.50
2009,07,29,00,21,22.40
2009,07,29,00,22,22.40
2009,07,29,00,23,22.40
2009,07,29,00,24,22.40
2009,07,29,00,25,22.30
2009,07,29,00,26,22.30
2009,07,29,00,27,22.30
2009,07,29,00,28,22.30
2009,07,29,00,29,22.30
2009,07,29,00,30,22.30
2009,07,29,00,31,22.20
2009,07,29,00,32,22.20
2009,07,29,00,33,22.20
2009,07,29,00,34,22.20
2009,07,29,00,35,22.20
2009,07,29,00,36,22.20
2009,07,29,00,37,22.20
2009,07,29,00,38,22.10
2009,07,29,00,39,22.10
2009,07,29,00,40,22.10
2009,07,29,00,41,22.10
2009,07,29,00,42,22.10
2009,07,29,00,43,22.10
2009,07,29,00,44,22.20
2009,07,29,00,45,22.20
2009,07,29,00,46,22.20
2009,07,29,00,47,22.20
2009,07,29,00,48,22.20
2009,07,29,00,49,22.20
2009,07,29,00,50,22.20
2009,07,29,00,51,22.20
2009,07,29,00,52,22.20
2009,07,29,00,53,22.20
2009,07,29,00,54,22.20
2009,07,29,00,55,22.20
2009,07,29,00,56,22.10
2009,07,29,00,57,22.10
2009,07,29,00,58,22.10
2009,07,29,00,59,22.10
2009,07,29,01,00,22.10
2009,07,29,01,01,22.10
2009,07,29,01,02,22.10
2009,07,29,01,03,22.10
2009,07,29,01,04,22.10
2009,07,29,01,05,22.10
2009,07,29,01,06,22.10
2009,07,29,01,07,22.10
2009,07,29,01,08,22.10
2009,07,29,01,09,22.10
2009,07,29,01,10,22.10
2009,07,29,01,11,22.10
2009,07,29,01,12,22.10
2009,07,29,01,13,22.00
2009,07,29,01,14,22.00
2009,07,29,01,15,22.00
2009,07,29,01,16,22.00
2009,07,29,01,17,22.00
2009,07,29,01,18,22.00
2009,07,29,01,19,22.00
2009,07,29,01,20,22.00
2009,07,29,01,21,21.90
2009,07,29,01,22,21.90
2009,07,29,01,23,21.90
2009,07,29,01,24,21.90
2009,07,29,01,25,21.90
2009,07,29,01,26,21.90
2009,07,29,01,27,21.90
2009,07,29,01,28,21.80
2009,07,29,01,29,21.80
2009,07,29,01,30,21.70
2009,07,29,01,31,21.70
2009,07,29,01,32,21.70
2009,07,29,01,33,21.60
2009,07,29,01,34,21.60
2009,07,29,01,35,21.60
2009,07,29,01,36,21.60
2009,07,29,01,37,21.60
2009,07,29,01,38,21.40
2009,07,29,01,39,21.40
2009,07,29,01,40,21.30
2009,07,29,01,41,21.30
2009,07,29,01,42,21.30
2009,07,29,01,43,21.30
2009,07,29,01,44,21.30
2009,07,29,01,45,21.30
2009,07,29,01,46,21.30
2009,07,29,01,47,21.30
2009,07,29,01,48,21.30
2009,07,29,01,49,21.30
2009,07,29,01,50,21.20
2009,07,29,01,51,21.20
2009,07,29,01,52,21.20
2009,07,29,01,53,21.20
2009,07,29,01,54,21.20
2009,07,29,01,55,21.20
2009,07,29,01,56,21.20
2009,07,29,01,57,21.20
2009,07,29,01,58,21.20
2009,07,29,01,59,21.20
2009,07,29,02,00,21.20
2009,07,29,02,01,21.20
2009,07,29,02,02,21.20
2009,07,29,02,03,21.20
2009,07,29,02,04,21.20
2009,07,29,02,05,21.20
2009,07,29,02,06,21.20
2009,07,29,02,07,21.20
2009,07,29,02,08,21.20
2009,07,29,02,09,21.10
2009,07,29,02,10,21.10
2009,07,29,02,11,21.10
2009,07,29,02,12,21.10
2009,07,29,02,13,21.10
2009,07,29,02,14,21.10
2009,07,29,02,15,21.10
2009,07,29,02,16,21.00
2009,07,29,02,17,21.00
2009,07,29,02,18,21.00
2009,07,29,02,19,21.00
2009,07,29,02,20,21.00
2009,07,29,02,21,21.00
2009,07,29,02,22,20.90
2009,07,29,02,23,20.90
2009,07,29,02,24,20.90
2009,07,29,02,25,20.90
2009,07,29,02,26,20.90
2009,07,29,02,27,20.80
2009,07,29,02,28,20.80
2009,07,29,02,29,20.80
2009,07,29,02,30,20.80
2009,07,29,02,31,20.80
2009,07,29,02,32,20.80
2009,07,29,02,33,20.80
2009,07,29,02,34,20.80
2009,07,29,02,35,20.80
2009,07,29,02,36,20.80
2009,07,29,02,37,20.80
2009,07,29,02,38,20.80
2009,07,29,02,39,20.80
2009,07,29,02,40,20.80
2009,07,29,02,41,20.80
2009,07,29,02,42,20.80
2009,07,29,02,43,20.80
2009,07,29,02,44,20.80
2009,07,29,02,45,20.80
2009,07,29,02,46,20.80
2009,07,29,02,47,20.80
2009,07,29,02,48,20.80
2009,07,29,02,49,20.80
2009,07,29,02,50,20.80
2009,07,29,02,51,20.70
2009,07,29,02,52,20.70
2009,07,29,02,53,20.70
2009,07,29,02,54,20.70
2009,07,29,02,55,20.70
2009,07,29,02,56,20.70
2009,07,29,02,57,20.60
2009,07,29,02,58,20.60
2009,07,29,02,59,20.60
2009,07,29,03,00,20.60
2009,07,29,03,01,20.60
2009,07,29,03,02,20.60
2009,07,29,03,03,20.50
2009,07,29,03,04,20.50
2009,07,29,03,05,20.50
2009,07,29,03,06,20.50
2009,07,29,03,07,20.40
2009,07,29,03,08,20.40
2009,07,29,03,09,20.30
2009,07,29,03,10,20.30
2009,07,29,03,11,20.30
2009,07,29,03,12,20.20
2009,07,29,03,13,20.20
2009,07,29,03,14,20.20
2009,07,29,03,15,20.20
2009,07,29,03,16,20.20
2009,07,29,03,17,20.20
2009,07,29,03,18,20.20
2009,07,29,03,19,20.20
2009,07,29,03,20,20.20
2009,07,29,03,21,20.20
2009,07,29,03,22,20.20
2009,07,29,03,23,20.20
2009,07,29,03,24,20.20
2009,07,29,03,25,20.20
2009,07,29,03,26,20.20
2009,07,29,03,27,20.20
2009,07,29,03,28,20.20
2009,07,29,03,29,20.20
2009,07,29,03,30,20.10
2009,07,29,03,31,20.10
2009,07,29,03,32,20.10
2009,07,29,03,33,20.10
2009,07,29,03,34,20.10
2009,07,29,03,35,20.10
2009,07,29,03,36,20.10
2009,07,29,03,37,20.10
2009,07,29,03,38,20.10
2009,07,29,03,39,20.10
2009,07,29,03,40,20.10
2009,07,29,03,41,20.10
2009,07,29,03,42,20.10
2009,07,29,03,43,20.10
2009,07,29,03,44,20.10
2009,07,29,03,45,20.10
2009,07,29,03,46,20.10
2009,07,29,03,47,20.10
2009,07,29,03,48,20.20
2009,07,29,03,49,20.20
2009,07,29,03,50,20.20
2009,07,29,03,51,20.20
2009,07,29,03,52,20.20
2009,07,29,03,53,20.20
2009,07,29,03,54,20.20
2009,07,29,03,55,20.20
2009,07,29,03,56,20.20
2009,07,29,03,57,20.20
2009,07,29,03,58,20.20
2009,07,29,03,59,20.20
2009,07,29,04,00,20.20
2009,07,29,04,01,20.20
2009,07,29,04,02,20.20
2009,07,29,04,03,20.20
2009,07,29,04,05,20.20
2009,07,29,04,06,20.20
2009,07,29,04,07,20.20
2009,07,29,04,08,20.20
2009,07,29,04,09,20.20
2009,07,29,04,10,20.10
2009,07,29,04,11,20.10
2009,07,29,04,12,20.10
2009,07,29,04,13,20.10
2009,07,29,04,14,20.10
2009,07,29,04,15,20.10
2009,07,29,04,16,20.10
2009,07,29,04,17,20.10
2009,07,29,04,18,20.10
2009,07,29,04,19,19.90
2009,07,29,04,20,19.90
2009,07,29,04,21,19.90
2009,07,29,04,22,19.90
2009,07,29,04,23,19.90
2009,07,29,04,24,19.90
2009,07,29,04,25,19.90
2009,07,29,04,26,19.90
2009,07,29,04,27,19.80
2009,07,29,04,28,19.80
2009,07,29,04,29,19.70
2009,07,29,04,30,19.70
2009,07,29,04,31,19.60
2009,07,29,04,32,19.60
2009,07,29,04,33,19.60
2009,07,29,04,34,19.50
2009,07,29,04,35,19.50
2009,07,29,04,36,19.50
2009,07,29,04,37,19.50
2009,07,29,04,38,19.50
2009,07,29,04,39,19.50
2009,07,29,04,40,19.40
2009,07,29,04,41,19.40
2009,07,29,04,42,19.40
2009,07,29,04,43,19.40
2009,07,29,04,44,19.40
2009,07,29,04,45,19.40
2009,07,29,04,46,19.40
2009,07,29,04,47,19.40
2009,07,29,04,48,19.40
2009,07,29,04,49,19.40
2009,07,29,04,50,19.40
2009,07,29,04,51,19.40
2009,07,29,04,52,19.40
2009,07,29,04,53,19.40
2009,07,29,04,54,19.40
2009,07,29,04,55,19.30
2009,07,29,04,56,19.30
2009,07,29,04,57,19.30
2009,07,29,04,58,19.30
2009,07,29,04,59,19.30
2009,07,29,05,00,19.30
2009,07,29,05,01,19.30
2009,07,29,05,02,19.30
2009,07,29,05,03,19.30
2009,07,29,05,04,19.30
2009,07,29,05,05,19.30
2009,07,29,05,06,19.30
2009,07,29,05,07,19.20
2009,07,29,05,08,19.20
2009,07,29,05,09,19.20
2009,07,29,05,10,19.20
2009,07,29,05,11,19.20
2009,07,29,05,12,19.20
2009,07,29,05,13,19.20
2009,07,29,05,14,19.20
2009,07,29,05,15,19.10
2009,07,29,05,16,19.10
2009,07,29,05,17,19.10
2009,07,29,05,18,19.10
2009,07,29,05,19,19.10
2009,07,29,05,20,19.10
2009,07,29,05,21,19.10
2009,07,29,05,22,19.10
2009,07,29,05,23,19.10
2009,07,29,05,24,19.10
2009,07,29,05,25,19.10
2009,07,29,05,26,19.10
2009,07,29,05,27,19.10
2009,07,29,05,28,19.10
2009,07,29,05,29,19.10
2009,07,29,05,30,19.10
2009,07,29,05,31,19.10
2009,07,29,05,32,19.10
2009,07,29,05,33,19.10
2009,07,29,05,34,19.10
2009,07,29,05,35,19.10
2009,07,29,05,36,19.10
2009,07,29,05,37,19.10
2009,07,29,05,38,19.10
2009,07,29,05,39,19.10
2009,07,29,05,40,19.10
2009,07,29,05,41,19.10
2009,07,29,05,42,19.10
2009,07,29,05,43,19.10
2009,07,29,05,44,19.10
2009,07,29,05,45,19.10
2009,07,29,05,46,19.10
2009,07,29,05,47,19.10
2009,07,29,05,48,19.10
2009,07,29,05,49,19.10
2009,07,29,05,50,19.10
2009,07,29,05,51,19.10
2009,07,29,05,52,19.10
2009,07,29,05,53,19.10
2009,07,29,05,54,19.10
2009,07,29,05,55,19.10
2009,07,29,05,56,19.10
2009,07,29,05,57,19.10
2009,07,29,05,58,19.10
2009,07,29,05,59,19.10
2009,07,29,06,00,19.10
2009,07,29,06,01,19.10
2009,07,29,06,02,19.10
2009,07,29,06,03,19.10
2009,07,29,06,04,19.10
2009,07,29,06,05,19.10
2009,07,29,06,06,19.10
2009,07,29,06,07,19.10
2009,07,29,06,08,19.20
2009,07,29,06,09,19.20
2009,07,29,06,10,19.20
2009,07,29,06,11,19.20
2009,07,29,06,12,19.20
2009,07,29,06,13,19.20
2009,07,29,06,14,19.30
2009,07,29,06,15,19.30
2009,07,29,06,16,19.30
2009,07,29,06,17,19.30
2009,07,29,06,18,19.30
2009,07,29,06,19,19.40
2009,07,29,06,20,19.40
2009,07,29,06,21,19.40
2009,07,29,06,22,19.40
2009,07,29,06,23,19.50
2009,07,29,06,24,19.50
2009,07,29,06,25,19.50
2009,07,29,06,26,19.40
2009,07,29,06,27,19.40
2009,07,29,06,28,19.40
2009,07,29,06,29,19.40
2009,07,29,06,30,19.40
2009,07,29,06,31,19.40
2009,07,29,06,32,19.40
2009,07,29,06,33,19.40
2009,07,29,06,34,19.40
2009,07,29,06,35,19.40
2009,07,29,06,36,19.40
2009,07,29,06,37,19.40
2009,07,29,06,38,19.40
2009,07,29,06,39,19.40
2009,07,29,06,40,19.40
2009,07,29,06,41,19.40
2009,07,29,06,42,19.40
2009,07,29,06,43,19.30
2009,07,29,06,44,19.30
2009,07,29,06,45,19.40
2009,07,29,06,46,19.30
2009,07,29,06,47,19.30
2009,07,29,06,48,19.30
2009,07,29,06,49,19.30
2009,07,29,06,50,19.30
2009,07,29,06,51,19.30
2009,07,29,06,52,19.40
2009,07,29,06,53,19.40
2009,07,29,06,54,19.40
2009,07,29,06,55,19.40
2009,07,29,06,56,19.40
2009,07,29,06,57,19.40
2009,07,29,06,58,19.50
2009,07,29,06,59,19.60
2009,07,29,07,00,19.70
2009,07,29,07,01,19.80
2009,07,29,07,02,19.90
2009,07,29,07,03,20.00
2009,07,29,07,04,20.10
2009,07,29,07,05,20.20
2009,07,29,07,06,20.30
2009,07,29,07,07,20.40
2009,07,29,07,08,20.50
2009,07,29,07,09,20.60
2009,07,29,07,10,20.70
2009,07,29,07,11,20.80
2009,07,29,07,12,20.90
2009,07,29,07,13,20.90
2009,07,29,07,14,21.00
2009,07,29,07,15,21.10
2009,07,29,07,16,21.10
2009,07,29,07,17,21.20
2009,07,29,07,18,21.20
2009,07,29,07,19,21.30
2009,07,29,07,20,21.30
2009,07,29,07,21,21.30
2009,07,29,07,22,21.30
2009,07,29,07,23,21.30
2009,07,29,07,24,21.40
2009,07,29,07,25,21.40
2009,07,29,07,26,21.60
2009,07,29,07,27,21.60
2009,07,29,07,28,21.60
2009,07,29,07,29,21.60
2009,07,29,07,30,21.70
2009,07,29,07,31,21.70
2009,07,29,07,32,21.80
2009,07,29,07,33,21.80
2009,07,29,07,34,21.90
2009,07,29,07,35,22.00
2009,07,29,07,36,22.00
2009,07,29,07,37,22.10
2009,07,29,07,38,22.20
2009,07,29,07,39,22.20
2009,07,29,07,40,22.30
2009,07,29,07,41,22.30
2009,07,29,07,42,22.40
2009,07,29,07,43,22.50
2009,07,29,07,44,22.60
2009,07,29,07,45,22.60
2009,07,29,07,46,22.70
2009,07,29,07,47,22.80
2009,07,29,07,48,22.90
2009,07,29,07,49,23.10
2009,07,29,07,50,23.20
2009,07,29,07,51,23.30
2009,07,29,07,52,23.30
2009,07,29,07,53,23.40
2009,07,29,07,54,23.50
2009,07,29,07,55,23.60
2009,07,29,07,56,23.70
2009,07,29,07,57,23.80
2009,07,29,07,58,23.90
2009,07,29,07,59,24.00
2009,07,29,08,00,24.10
2009,07,29,08,01,24.10
2009,07,29,08,02,24.30
2009,07,29,08,03,24.30
2009,07,29,08,04,24.40
2009,07,29,08,05,24.50
2009,07,29,08,06,24.50
2009,07,29,08,07,24.60
2009,07,29,08,08,24.70
2009,07,29,08,09,24.80
2009,07,29,08,10,24.90
2009,07,29,08,11,25.10
2009,07,29,08,12,25.20
2009,07,29,08,13,25.30
2009,07,29,08,14,25.40
2009,07,29,08,15,25.50
2009,07,29,08,16,25.60
2009,07,29,08,17,25.60
2009,07,29,08,18,25.70
2009,07,29,08,19,25.80
2009,07,29,08,20,25.80
2009,07,29,08,21,25.90
2009,07,29,08,22,25.90
2009,07,29,08,23,26.00
2009,07,29,08,24,26.00
2009,07,29,08,25,26.00
2009,07,29,08,26,26.00
2009,07,29,08,27,26.00
2009,07,29,08,28,26.00
2009,07,29,08,29,26.00
2009,07,29,08,30,26.00
2009,07,29,08,31,25.90
2009,07,29,08,32,25.90
2009,07,29,08,33,25.90
2009,07,29,08,34,25.80
2009,07,29,08,35,25.80
2009,07,29,08,36,25.80
2009,07,29,08,37,25.70
2009,07,29,08,38,25.70
2009,07,29,08,39,25.70
2009,07,29,08,40,25.70
2009,07,29,08,41,25.70
2009,07,29,08,42,25.70
2009,07,29,08,43,25.80
2009,07,29,08,44,25.80
2009,07,29,08,45,25.90
2009,07,29,08,46,25.90
2009,07,29,08,47,26.00
2009,07,29,08,48,26.10
2009,07,29,08,49,26.10
2009,07,29,08,50,26.10
2009,07,29,08,51,26.00
2009,07,29,08,52,26.00
2009,07,29,08,53,26.10
2009,07,29,08,54,26.10
2009,07,29,08,55,26.10
2009,07,29,08,56,26.10
2009,07,29,08,57,26.00
2009,07,29,08,58,26.00
2009,07,29,08,59,26.00
2009,07,29,09,00,26.00
2009,07,29,09,01,26.00
2009,07,29,09,02,26.10
2009,07,29,09,03,26.10
2009,07,29,09,04,26.10
2009,07,29,09,05,26.10
2009,07,29,09,06,26.10
2009,07,29,09,07,26.10
2009,07,29,09,08,26.20
2009,07,29,09,09,26.20
2009,07,29,09,10,26.30
2009,07,29,09,11,26.20
2009,07,29,09,12,26.20
2009,07,29,09,13,26.20
2009,07,29,09,14,26.10
2009,07,29,09,15,26.10
2009,07,29,09,16,26.10
2009,07,29,09,17,26.20
2009,07,29,09,18,26.20
2009,07,29,09,19,26.30
2009,07,29,09,20,26.40
2009,07,29,09,21,26.50
2009,07,29,09,22,26.60
2009,07,29,09,23,26.60
2009,07,29,09,24,26.70
2009,07,29,09,25,26.70
2009,07,29,09,26,26.80
2009,07,29,09,27,26.80
2009,07,29,09,28,27.00
2009,07,29,09,29,27.10
2009,07,29,09,30,27.10
2009,07,29,09,31,27.30
2009,07,29,09,32,27.30
2009,07,29,09,33,27.30
2009,07,29,09,34,27.30
2009,07,29,09,35,27.40
2009,07,29,09,36,27.30
2009,07,29,09,37,27.40
2009,07,29,09,38,27.40
2009,07,29,09,39,27.40
2009,07,29,09,40,27.40
2009,07,29,09,41,27.40
2009,07,29,09,42,27.40
2009,07,29,09,43,27.50
2009,07,29,09,44,27.60
2009,07,29,09,45,27.60
2009,07,29,09,46,27.70
2009,07,29,09,47,27.70
2009,07,29,09,48,27.70
2009,07,29,09,49,27.60
2009,07,29,09,50,27.60
2009,07,29,09,51,27.60
2009,07,29,09,52,27.60
2009,07,29,09,53,27.60
2009,07,29,09,54,27.70
2009,07,29,09,55,27.70
2009,07,29,09,56,27.70
2009,07,29,09,57,27.70
2009,07,29,09,58,27.70
2009,07,29,09,59,27.70
2009,07,29,10,00,27.70
2009,07,29,10,01,27.60
2009,07,29,10,02,27.60
2009,07,29,10,03,27.70
2009,07,29,10,04,27.70
2009,07,29,10,05,27.60
2009,07,29,10,06,27.50
2009,07,29,10,07,27.50
2009,07,29,10,08,27.60
2009,07,29,10,09,27.70
2009,07,29,10,10,27.90
2009,07,29,10,11,27.90
2009,07,29,10,12,27.90
2009,07,29,10,13,27.90
2009,07,29,10,14,28.00
2009,07,29,10,15,28.10
2009,07,29,10,16,28.10
2009,07,29,10,17,28.00
2009,07,29,10,18,28.00
2009,07,29,10,19,27.90
2009,07,29,10,20,27.90
2009,07,29,10,21,27.90
2009,07,29,10,22,28.00
2009,07,29,10,23,28.10
2009,07,29,10,24,28.10
2009,07,29,10,25,28.00
2009,07,29,10,26,28.00
2009,07,29,10,27,28.10
2009,07,29,10,28,28.10
2009,07,29,10,29,28.10
2009,07,29,10,30,28.20
2009,07,29,10,31,28.30
2009,07,29,10,32,28.30
2009,07,29,10,33,28.30
2009,07,29,10,34,28.40
2009,07,29,10,35,28.40
2009,07,29,10,36,28.60
2009,07,29,10,37,28.70
2009,07,29,10,38,28.70
2009,07,29,10,39,28.70
2009,07,29,10,40,28.80
2009,07,29,10,41,28.80
2009,07,29,10,42,28.90
2009,07,29,10,43,28.80
2009,07,29,10,44,28.80
2009,07,29,10,45,28.80
2009,07,29,10,46,28.80
2009,07,29,10,47,28.90
2009,07,29,10,48,28.90
2009,07,29,10,49,28.90
2009,07,29,10,50,28.90
2009,07,29,10,51,28.90
2009,07,29,10,52,29.00
2009,07,29,10,53,29.00
2009,07,29,10,54,28.90
2009,07,29,10,55,29.00
2009,07,29,10,56,29.10
2009,07,29,10,57,29.00
2009,07,29,10,58,28.90
2009,07,29,10,59,28.90
2009,07,29,11,00,28.90
2009,07,29,11,01,28.90
2009,07,29,11,02,28.80
2009,07,29,11,03,28.90
2009,07,29,11,04,28.90
2009,07,29,11,05,28.90
2009,07,29,11,06,29.00
2009,07,29,11,07,29.10
2009,07,29,11,08,29.20
2009,07,29,11,09,29.10
2009,07,29,11,10,29.20
2009,07,29,11,11,29.30
2009,07,29,11,12,29.30
2009,07,29,11,13,29.50
2009,07,29,11,14,29.60
2009,07,29,11,15,29.70
2009,07,29,11,16,29.80
2009,07,29,11,17,29.80
2009,07,29,11,18,29.70
2009,07,29,11,19,29.60
2009,07,29,11,20,29.60
2009,07,29,11,21,29.50
2009,07,29,11,22,29.50
2009,07,29,11,23,29.50
2009,07,29,11,24,29.50
2009,07,29,11,25,29.60
2009,07,29,11,26,29.60
2009,07,29,11,27,29.60
2009,07,29,11,28,29.70
2009,07,29,11,29,29.70
2009,07,29,11,30,29.70
2009,07,29,11,31,29.70
2009,07,29,11,32,29.70
2009,07,29,11,33,29.60
2009,07,29,11,34,29.70
2009,07,29,11,35,29.80
2009,07,29,11,36,29.90
2009,07,29,11,37,30.00
2009,07,29,11,38,30.10
2009,07,29,11,39,30.20
2009,07,29,11,40,30.20
2009,07,29,11,41,30.20
2009,07,29,11,42,30.10
2009,07,29,11,43,30.10
2009,07,29,11,44,30.00
2009,07,29,11,45,29.90
2009,07,29,11,46,29.80
2009,07,29,11,47,29.80
2009,07,29,11,48,29.80
2009,07,29,11,49,29.80
2009,07,29,11,50,29.80
2009,07,29,11,51,29.80
2009,07,29,11,52,29.90
2009,07,29,11,53,30.10
2009,07,29,11,54,30.20
2009,07,29,11,55,30.30
2009,07,29,11,56,30.10
2009,07,29,11,57,30.00
2009,07,29,11,58,29.90
2009,07,29,11,59,29.90
2009,07,29,12,00,29.90
2009,07,29,12,01,29.80
2009,07,29,12,02,29.80
2009,07,29,12,03,29.80
2009,07,29,12,04,29.70
2009,07,29,12,05,29.70
2009,07,29,12,06,29.70
2009,07,29,12,07,29.70
2009,07,29,12,08,29.80
2009,07,29,12,09,29.90
2009,07,29,12,10,29.90
2009,07,29,12,11,30.00
2009,07,29,12,12,30.10
2009,07,29,12,13,30.10
2009,07,29,12,14,30.00
2009,07,29,12,15,29.90
2009,07,29,12,16,29.90
2009,07,29,12,17,29.90
2009,07,29,12,18,29.90
2009,07,29,12,19,29.90
2009,07,29,12,20,29.80
2009,07,29,12,21,29.80
2009,07,29,12,22,29.80
2009,07,29,12,23,29.80
2009,07,29,12,24,29.80
2009,07,29,12,25,29.80
2009,07,29,12,26,29.80
2009,07,29,12,27,29.80
2009,07,29,12,28,29.90
2009,07,29,12,29,30.00
2009,07,29,12,30,30.10
2009,07,29,12,31,30.20
2009,07,29,12,32,30.20
2009,07,29,12,33,30.20
2009,07,29,12,34,30.10
2009,07,29,12,35,30.10
2009,07,29,12,36,30.20
2009,07,29,12,37,30.30
2009,07,29,12,38,30.30
2009,07,29,12,39,30.20
2009,07,29,12,40,30.20
2009,07,29,12,41,30.20
2009,07,29,12,42,30.30
2009,07,29,12,43,30.30
2009,07,29,12,44,30.40
2009,07,29,12,45,30.40
2009,07,29,12,46,30.40
2009,07,29,12,47,30.30
2009,07,29,12,48,30.30
2009,07,29,12,49,30.30
2009,07,29,12,50,30.30
2009,07,29,12,51,30.30
2009,07,29,12,52,30.30
2009,07,29,12,53,30.40
2009,07,29,12,54,30.60
2009,07,29,12,55,30.60
2009,07,29,12,56,30.60
2009,07,29,12,57,30.70
2009,07,29,12,58,30.80
2009,07,29,12,59,30.80
2009,07,29,13,00,30.90
2009,07,29,13,01,30.90
2009,07,29,13,02,31.00
2009,07,29,13,03,31.10
2009,07,29,13,04,31.10
2009,07,29,13,05,31.00
2009,07,29,13,06,31.00
2009,07,29,13,07,31.00
2009,07,29,13,08,31.10
2009,07,29,13,09,31.10
2009,07,29,13,10,31.10
2009,07,29,13,11,31.10
2009,07,29,13,12,31.00
2009,07,29,13,13,31.00
2009,07,29,13,14,31.00
2009,07,29,13,15,31.10
2009,07,29,13,16,31.00
2009,07,29,13,17,31.00
2009,07,29,13,18,31.00
2009,07,29,13,19,31.00
2009,07,29,13,20,31.00
2009,07,29,13,21,31.10
2009,07,29,13,22,31.10
2009,07,29,13,23,31.10
2009,07,29,13,24,31.10
2009,07,29,13,25,31.30
2009,07,29,13,26,31.40
2009,07,29,13,27,31.40
2009,07,29,13,28,31.60
2009,07,29,13,29,31.60
2009,07,29,13,30,31.60
2009,07,29,13,31,31.60
2009,07,29,13,32,31.60
2009,07,29,13,33,31.70
2009,07,29,13,34,31.70
2009,07,29,13,35,31.70
2009,07,29,13,36,31.60
2009,07,29,13,37,31.60
2009,07,29,13,38,31.60
2009,07,29,13,39,31.60
2009,07,29,13,40,31.60
2009,07,29,13,41,31.70
2009,07,29,13,42,31.80
2009,07,29,13,43,31.80
2009,07,29,13,44,31.80
2009,07,29,13,45,31.80
2009,07,29,13,46,31.80
2009,07,29,13,47,31.90
2009,07,29,13,48,31.90
2009,07,29,13,49,32.00
2009,07,29,13,50,32.20
2009,07,29,13,51,32.20
2009,07,29,13,52,32.10
2009,07,29,13,53,32.10
2009,07,29,13,54,32.00
2009,07,29,13,55,32.10
2009,07,29,13,56,32.10
2009,07,29,13,57,32.20
2009,07,29,13,58,32.20
2009,07,29,13,59,32.30
2009,07,29,14,00,32.50
2009,07,29,14,01,32.70
2009,07,29,14,02,32.90
2009,07,29,14,03,32.90
2009,07,29,14,04,32.90
2009,07,29,14,05,32.90
2009,07,29,14,06,33.00
2009,07,29,14,07,33.00
2009,07,29,14,08,33.00
2009,07,29,14,09,33.10
2009,07,29,14,10,33.10
2009,07,29,14,11,33.10
2009,07,29,14,12,33.20
2009,07,29,14,13,33.20
2009,07,29,14,14,33.30
2009,07,29,14,15,33.40
2009,07,29,14,16,33.40
2009,07,29,14,17,33.40
2009,07,29,14,18,33.50
2009,07,29,14,19,33.50
2009,07,29,14,20,33.40
2009,07,29,14,21,33.40
2009,07,29,14,22,33.40
2009,07,29,14,23,33.40
2009,07,29,14,24,33.50
2009,07,29,14,25,33.60
2009,07,29,14,26,33.60
2009,07,29,14,27,33.50
2009,07,29,14,28,33.40
2009,07,29,14,29,33.40
2009,07,29,14,30,33.40
2009,07,29,14,31,33.20
2009,07,29,14,32,33.20
2009,07,29,14,33,33.40
2009,07,29,14,34,33.40
2009,07,29,14,35,33.40
2009,07,29,14,36,33.50
2009,07,29,14,37,33.50
2009,07,29,14,38,33.50
2009,07,29,14,39,33.60
2009,07,29,14,40,33.60
2009,07,29,14,41,33.60
2009,07,29,14,42,33.70
2009,07,29,14,43,33.70
2009,07,29,14,44,33.80
2009,07,29,14,45,34.00
2009,07,29,14,46,34.00
2009,07,29,14,47,34.10
2009,07,29,14,48,34.10
2009,07,29,14,49,34.10
2009,07,29,14,50,34.10
2009,07,29,14,51,34.20
2009,07,29,14,52,34.20
2009,07,29,14,53,34.20
2009,07,29,14,54,34.20
2009,07,29,14,55,34.20
2009,07,29,14,56,34.20
2009,07,29,14,57,34.20
2009,07,29,14,58,34.20
2009,07,29,14,59,34.20
2009,07,29,15,00,34.20
2009,07,29,15,01,34.20
2009,07,29,16,25,36.20
2009,07,29,16,26,36.20
2009,07,29,16,27,36.10
2009,07,29,16,28,36.00
2009,07,29,16,29,35.90
2009,07,29,16,30,35.80
2009,07,29,16,31,35.70
2009,07,29,16,32,35.70
2009,07,29,16,33,35.70
2009,07,29,16,34,35.70
2009,07,29,16,35,35.70
2009,07,29,16,36,35.70
2009,07,29,16,37,35.60
2009,07,29,16,38,35.70
2009,07,29,16,39,35.80
2009,07,29,16,40,35.90
2009,07,29,16,41,35.90
2009,07,29,16,42,35.90
2009,07,29,16,43,35.90
2009,07,29,16,44,35.90
2009,07,29,16,45,35.90
2009,07,29,16,46,35.70
2009,07,29,16,47,35.60
2009,07,29,16,48,35.50
2009,07,29,16,49,35.50
2009,07,29,16,50,35.50
2009,07,29,16,51,35.50
2009,07,29,16,52,35.60
2009,07,29,16,53,35.70
2009,07,29,16,54,35.80
2009,07,29,16,55,35.90
2009,07,29,16,56,36.00
2009,07,29,16,57,36.20
2009,07,29,16,58,36.20
2009,07,29,16,59,36.30
2009,07,29,17,00,36.30
2009,07,29,17,01,36.40
2009,07,29,17,02,36.40
2009,07,29,17,03,36.40
2009,07,29,17,04,36.40
2009,07,29,17,05,36.50
2009,07,29,17,06,36.60
2009,07,29,17,07,36.60
2009,07,29,17,08,36.50
2009,07,29,17,09,36.40
2009,07,29,17,10,36.20
2009,07,29,17,11,36.10
2009,07,29,17,12,35.90
2009,07,29,17,13,35.80
2009,07,29,17,14,35.60
2009,07,29,17,15,35.50
2009,07,29,17,16,35.40
2009,07,29,17,17,35.30
2009,07,29,17,18,35.20
2009,07,29,17,19,35.10
2009,07,29,17,20,35.10
2009,07,29,17,21,35.10
2009,07,29,17,22,35.00
2009,07,29,17,23,34.90
2009,07,29,17,24,34.90
2009,07,29,17,25,34.90
2009,07,29,17,26,34.90
2009,07,29,17,27,34.80
2009,07,29,17,28,34.70
2009,07,29,17,29,34.70
2009,07,29,17,30,34.60
2009,07,29,17,31,34.60
2009,07,29,17,32,34.50
2009,07,29,17,33,34.40
2009,07,29,17,34,34.30
2009,07,29,17,35,34.20
2009,07,29,17,36,34.10
2009,07,29,17,37,34.00
2009,07,29,17,38,33.90
2009,07,29,17,39,33.70
2009,07,29,17,40,33.60
2009,07,29,17,41,33.60
2009,07,29,17,42,33.50
2009,07,29,17,43,33.50
2009,07,29,17,44,33.50
2009,07,29,17,45,33.30
2009,07,29,17,46,33.20
2009,07,29,17,47,33.10
2009,07,29,17,48,33.00
2009,07,29,17,49,32.90
2009,07,29,17,50,32.80
2009,07,29,17,51,32.50
2009,07,29,17,52,32.40
2009,07,29,17,53,32.20
2009,07,29,17,54,32.10
2009,07,29,17,55,31.90
2009,07,29,17,56,31.80
2009,07,29,17,57,31.80
2009,07,29,17,58,31.70
2009,07,29,17,59,31.70
2009,07,29,18,00,31.70
2009,07,29,18,01,31.60
2009,07,29,18,02,31.60
2009,07,29,18,03,31.60
2009,07,29,18,04,31.70
2009,07,29,18,05,31.70
2009,07,29,18,06,31.70
2009,07,29,18,07,31.70
2009,07,29,18,08,31.60
2009,07,29,18,09,31.60
2009,07,29,18,10,31.60
2009,07,29,18,11,31.60
2009,07,29,18,12,31.60
2009,07,29,18,13,31.60
2009,07,29,18,14,31.60
2009,07,29,18,15,31.60
2009,07,29,18,16,31.60
2009,07,29,18,17,31.60
2009,07,29,18,18,31.60
2009,07,29,18,19,31.70
2009,07,29,18,20,31.80
2009,07,29,18,21,31.90
2009,07,29,18,22,31.90
2009,07,29,18,23,31.90
2009,07,29,18,24,31.90
2009,07,29,18,25,31.90
2009,07,29,18,26,31.80
2009,07,29,18,27,31.80
2009,07,29,18,28,31.80
2009,07,29,18,29,31.80
2009,07,29,18,30,31.80
2009,07,29,18,31,31.80
2009,07,29,18,32,31.80
2009,07,29,18,33,31.80
2009,07,29,18,34,31.80
2009,07,29,18,35,31.80
2009,07,29,18,36,31.80
2009,07,29,18,37,31.80
2009,07,29,18,38,31.80
2009,07,29,18,39,31.90
2009,07,29,18,40,31.90
2009,07,29,18,41,31.90
2009,07,29,18,42,31.90
2009,07,29,18,43,31.90